Ireland West Airport Knock, Ireland

3:00 AM GMT on February 12, 2016 (GMT +0000)
Connaught

Weather History for EIKN - April, 2013

Change the Weather History Date:

Monday, April 8, 2013

  Actual Average Record
Temperature  
Mean Temperature 40 °F -  
Max Temperature 47 °F - - ()
Min Temperature 32 °F - - ()
Degree Days  
Heating Degree Days 26    
Moisture  
Dew Point 31 °F    
Average Humidity 66    
Maximum Humidity 93    
Minimum Humidity 43    
Precipitation  
Precipitation 0.00 in - - ()
Sea Level Pressure  
Sea Level Pressure 29.57 in    
Wind  
Wind Speed 15 mph ()    
Max Wind Speed 23 mph    
Max Gust Speed 37 mph    
Visibility 5.4 miles    
Events      
T = Trace of Precipitation, MM = Missing Value Source: Averaged Metar Reports

Daily Weather History Graph

Daily Weather History Graph

Search for Another Location

Airport or City:

Trip Planner

Search our weather history database for the weather conditions in past years. The results will help you decide how hot, cold, wet, or windy it might be!

Date:

Astronomy

Apr. 08, 2013 Rise Set
Actual Time 6:51 AM IST 8:24 PM IST
Civil Twilight 6:14 AM IST 9:01 PM IST
Nautical Twilight 5:29 AM IST 9:46 PM IST
Astronomical Twilight 4:38 AM IST 10:37 PM IST
Moon 5:49 AM IST (4/8) 6:34 PM IST (4/8)
Length of Visible Light 14h 46m
Length of Day
13h 33m
Waning Crescent, 4% of the Moon is Illuminated
Apr 8
Waning Crescent
Apr 10
New
Apr 18
First Quarter
Apr 25
Full
May 2
Last Quarter

Hourly Weather History & Observations

Time (IST) Temp. Windchill Dew Point Humidity Pressure Visibility Wind Dir Wind Speed Gust Speed Precip Events Conditions
1:00 AM 34 °F - 31 °F 82% 29.78 in - East 13.4 mph - -  
6:00 AM 33.8 °F 24.3 °F 32.0 °F 93% 29.65 in 6.2 mi East 13.8 mph - N/A   Mostly Cloudy
6:30 AM 33.8 °F 23.9 °F 32.0 °F 93% 29.65 in 6.2 mi East 15.0 mph - N/A   Overcast
7:00 AM 33 °F - 32 °F 93% 29.69 in 3 mi East 15.7 mph - -   Scattered Clouds
7:00 AM 33.8 °F 23.9 °F 32.0 °F 93% 29.65 in - East 15.0 mph - N/A   Partly Cloudy
7:30 AM 33.8 °F 24.3 °F 32.0 °F 93% 29.62 in - East 13.8 mph - N/A   Scattered Clouds
8:00 AM 33.8 °F 23.9 °F 32.0 °F 93% 29.62 in - East 15.0 mph - N/A   Mostly Cloudy
8:30 AM 35.6 °F 25.9 °F 33.8 °F 93% 29.62 in - East 16.1 mph - N/A   Mostly Cloudy
9:00 AM 37.4 °F 28.2 °F 33.8 °F 87% 29.62 in - East 16.1 mph - N/A   Scattered Clouds
9:30 AM 39.2 °F 30.5 °F 33.8 °F 81% 29.62 in 4.3 mi East 16.1 mph 27.6 mph N/A   Scattered Clouds
10:00 AM 41.0 °F 32.2 °F 32.0 °F 70% 29.62 in 3.7 mi East 18.4 mph - N/A   Mostly Cloudy
10:30 AM 41.0 °F 32.2 °F 32.0 °F 70% 29.62 in 5.0 mi East 18.4 mph - N/A   Mostly Cloudy
11:00 AM 42.8 °F 34.0 °F 30.2 °F 61% 29.59 in 5.6 mi East 20.7 mph - N/A   Scattered Clouds
11:30 AM 44.6 °F 36.6 °F 30.2 °F 57% 29.59 in 5.6 mi East 19.6 mph - N/A   Scattered Clouds
12:00 PM 44.6 °F 36.6 °F 30.2 °F 57% 29.56 in 5.6 mi East 19.6 mph - N/A   Scattered Clouds
12:30 PM 46.4 °F 39.2 °F 30.2 °F 53% 29.56 in 5.6 mi ESE 18.4 mph 31.1 mph N/A   Scattered Clouds
1:00 PM 46 °F - 31 °F 43% 29.58 in 6 mi East 20.1 mph - -   Haze
1:00 PM 46.4 °F 38.7 °F 30.2 °F 53% 29.56 in 5.6 mi East 20.7 mph - N/A   Scattered Clouds
1:30 PM 46.4 °F 38.5 °F 28.4 °F 50% 29.53 in 5.6 mi East 21.9 mph 35.7 mph N/A   Scattered Clouds
2:00 PM 46.4 °F 38.7 °F 30.2 °F 53% 29.53 in 5.6 mi East 20.7 mph 36.8 mph N/A   Scattered Clouds
2:30 PM 46.4 °F 38.7 °F 30.2 °F 53% 29.53 in 5.6 mi East 20.7 mph - N/A   Scattered Clouds
3:00 PM 46.4 °F 38.5 °F 28.4 °F 50% 29.53 in 5.6 mi ESE 21.9 mph - N/A   Mostly Cloudy
3:30 PM 48.2 °F - 28.4 °F 46% 29.50 in 5.6 mi ESE 18.4 mph 29.9 mph N/A   Mostly Cloudy
4:00 PM 46.4 °F 39.5 °F 28.4 °F 50% 29.50 in 6.2 mi ESE 17.3 mph - N/A   Mostly Cloudy
4:30 PM 46.4 °F 38.7 °F 28.4 °F 50% 29.47 in 6.2 mi ESE 20.7 mph 36.8 mph N/A   Scattered Clouds
5:00 PM 46.4 °F 38.3 °F 28.4 °F 50% 29.47 in 5.6 mi East 23.0 mph 34.5 mph N/A   Scattered Clouds
5:30 PM 44.6 °F 36.4 °F 28.4 °F 53% 29.47 in 5.6 mi East 20.7 mph - N/A   Scattered Clouds
6:00 PM 46.4 °F 38.5 °F 28.4 °F 50% 29.47 in 5.6 mi East 21.9 mph - N/A   Scattered Clouds
7:00 PM 43 °F - 29 °F 45% 29.50 in 5 mi East 17.9 mph - -   Partly Cloudy
7:00 PM 42.8 °F 34.8 °F 28.4 °F 57% 29.47 in 5.0 mi East 17.3 mph 28.8 mph N/A   Mostly Cloudy